User: anonymous   Login
Location: Unspecified
(0.0000°N, 0.0000°E)
Time: 08:14:13
(UTC+00:00)
Language:

JASON 3 - Orbit

View from above orbital plane
View from above orbital plane
View from above satellite
View from above satellite

Ground track
Ground track

The orbit data is extracted from the following two-line orbital elements,

1 41240U 16002A   22343.52243346 -.00000049  00000-0  52688-4 0  9990
2 41240  66.0418 285.4489 0007755 268.7301  91.2826 12.80930860322337
Epoch (UTC): 09 December 2022 12:32:18
Eccentricity: 0.0007755
inclination: 66.0418°
perigee height: 1332 km
apogee height: 1344 km
right ascension of ascending node: 285.4489°
argument of perigee: 268.7301°
revolutions per day: 12.80930860
mean anomaly at epoch: 91.2826°
orbit number at epoch: 32233

The dashed part of the orbit path shows where the satellite is in the earth's shadow,  

DLR